Regional Weather Roundup
Issued by NWS

Home | Current Version | Previous Version | Text Only | Print | Product List | Glossary Off
Versions: 1 2 3 4 5 6 7 8 9 10 11 12 13 14 15 16 17 18 19 20 21 22 23 24 25 26 27 28 29 30 31 32 33 34 35 36 37 38 39 40 41 42 43 44 45 46 47 48 49 50

924
ASUS45 KTFX 250510
RWRMT
MONTANA REGIONAL WEATHER ROUNDUP
NATIONAL WEATHER SERVICE GREAT FALLS MT
1100 PM MDT SAT JUN 24 2017

NOTE: "FAIR" INDICATES FEW OR NO CLOUDS BELOW 12000 FEET WITH NO
SIGNIFICANT WEATHER AND/OR OBSTRUCTIONS TO VISIBILITY.

MTZ001>007-043-250600-
WEST OF THE DIVIDE

CITY           SKY/WX    TMP DP  RH WIND       PRES   REMARKS
KALISPELL      CLEAR     58  48  69 CALM      30.21R
MISSOULA       CLEAR     63  40  42 CALM      30.22R
BUTTE          CLEAR     60  37  42 S7        30.35R
MULLAN PASS    CLEAR     60  36  40 NW5       30.36R
ANACONDA         N/A     55  36  47 NE7       30.32R
DEER LODGE       N/A     63  37  39 NW6       30.34R
EUREKA           N/A     61  45  55 MISG      30.19R
HAMILTON         N/A     57  45  62 CALM      30.24R
$$

MTZ008-052>055-250600-
SOUTHWEST MONTANA

CITY           SKY/WX    TMP DP  RH WIND       PRES   REMARKS
BOZEMAN        CLEAR     59  39  47 CALM      30.31R
DILLON         CLEAR     56  41  57 VRB3      30.30R
W YELLOWSTONE  CLEAR     54  30  40 N7        30.39S
ENNIS          CLEAR     54  39  58 S7        30.37R
THREE FORKS      N/A     58  43  57 CALM      30.27R
$$

MTZ009-010-012-014-046-048-049-054-250600-
EAST SLOPES AND CENTRAL MONTANA

CITY           SKY/WX    TMP DP  RH WIND       PRES   REMARKS
CUT BANK       PTCLDY    56  43  61 SE6       30.35R
GREAT FALLS    CLOUDY    60  40  47 E10       30.35R
MALMSTROM AFB  MOCLDY    56  43  60 E7        30.34R
HELENA         CLEAR     63  38  39 W7        30.31R
CHOTEAU          N/A     57  43  58 CALM      30.38R
$$

MTZ011-013-016-021-045-047-050-051-250600-
NORTH CENTRAL MONTANA

CITY           SKY/WX    TMP DP  RH WIND       PRES   REMARKS
HAVRE          CLEAR     50  40  68 SW6       30.31R
LEWISTOWN      CLOUDY    57  40  52 SE5       30.37R
N BAR RANCH    MOCLDY    52  37  58 CALM      30.40S
CHINOOK          N/A     54  39  58 CALM      30.30R
FORT BENTON      N/A     61  39  44 MISG        N/A
$$

MTZ017>020-022>027-061-062-250600-
NORTHEAST MONTANA

CITY           SKY/WX    TMP DP  RH WIND       PRES   REMARKS
GLASGOW        CLEAR     57  34  41 S5        30.27S
JORDAN           N/A     52  28  39 W5        30.30R
SIDNEY         CLEAR     54  35  48 SW5       30.29R
WOLF POINT     CLEAR     51  33  50 CALM      30.28R
MALTA          CLEAR     52  37  58 CALM      30.28R
PLENTYWOOD       N/A     55  36  47 CALM      30.26S
POPLAR           N/A     55  36  47 SE6       30.28S
$$

MTZ028>42-056>058-250600-
SOUTHCENTRAL AND SOUTHEAST MONTANA

CITY           SKY/WX    TMP DP  RH WIND       PRES   REMARKS
BAKER          CLEAR     47  30  51 SE5       30.34R
BILLINGS       CLOUDY    63  35  35 E6        30.33R
LIVINGSTON     CLEAR     58  38  47 E16       30.34R
MILES CITY     CLEAR     60  27  28 N6        30.30R
BIG TIMBER     CLEAR     57  36  44 NE3       30.39S
FORSYTH          N/A     55  34  44 CALM      30.31S
ROUNDUP          N/A     62  32  32 N3        30.23S
$$

REGIONAL REPORTS...DAKOTAS

CITY           SKY/WX    TMP DP  RH WIND       PRES   REMARKS
WILLISTON      CLEAR     49  38  65 CALM      30.27S
MINOT          CLEAR     49  39  68 SW8       30.25S
DICKINSON      CLEAR     44  33  65 S5        30.30S
BEACH            N/A     43  36  75 S3        30.35S
CROSBY         CLOUDY    52  43  71 SW6       30.26S
TIOGA            N/A     45  43  93 SW8       30.28F
WATFORD CITY     N/A     43  39  87 SW5       30.28S
BISMARCK       CLEAR     51  39  63 W5        30.29S
GRAND FORKS    CLOUDY    52  47  83 NW9       30.17S
FARGO          CLOUDY    53  42  66 NW13      30.18R
BUFFALO SD       N/A     52  31  44 NE7       30.29R
RAPID CITY     CLEAR     50  31  48 N9        30.35R
$$

REGIONAL REPORTS...WYOMING/IDAHO/WASHINGTON

CITY           SKY/WX    TMP DP  RH WIND       PRES   REMARKS
GILLETTE       PTCLDY    58  32  37 NE5       30.37R
SHERIDAN       CLOUDY    56  43  61 CALM      30.36R
BUFFALO WY     CLOUDY    60  34  37 CALM      30.40R
CODY           CLOUDY    60  35  39 CALM      30.39R
YELLOWSTONE LA   N/A     47  33  58 CALM      30.47R
IDAHO FALLS    CLEAR     58  51  78 CALM      30.24R
SALMON         CLEAR     63  37  39 CALM      30.21R
BOISE          CLEAR     75  38  26 N3        30.09R
SPOKANE        PTCLDY    79  34  19 NE5       30.15S
$$

REGIONAL REPORTS...ALBERTA

CITY           SKY/WX    TMP DP  RH WIND       PRES   REMARKS
EDMONTON       CLEAR     55  48  76 E3        30.25R
CALGARY        PTCLDY    61  41  48 SE8       30.32R
LETHBRIDGE     MOCLDY    52  46  82 SE9       30.31R
MEDICINE HAT   CLEAR     55  50  82 SW3       30.28R
MILK RIVER       N/A     50  45  81 W2          N/A
ONEFOUR          N/A     52  43  71 N8          N/A
$$

REGIONAL REPORTS...SASKATCHEWAN

CITY           SKY/WX    TMP DP  RH WIND       PRES   REMARKS
SWIFT CURRENT  PTCLDY    48  43  81 SE7       30.28R
REGINA         PTCLDY    50  45  81 W8        30.25S
CYPRESS HILLS    N/A     48  36  61 NW1         N/A
VAL MARIE        N/A     46  36  66 NE3         N/A
ROCKGLEN         N/A     52  39  62 W5          N/A
ASSINIBOIA       N/A     54  50  87 S6          N/A
$$




USA.gov is the U.S. government's official web portal to all federal, state and local government web resources and services.